Time,TemperatureF,DewpointF,PressureIn,WindDirection,WindDirectionDegrees,WindSpeedMPH,WindSpeedGustMPH,Humidity,HourlyPrecipIn,Conditions,Clouds,dailyrainin,SoftwareType,DateUTC
2013-02-26 00:03:00,39.4,34.7,30.33,West,263,0.0,3.0,83,0.00,OVC,OVC,0.00,WeatherDisplay:10.37,2013-02-26 08:03:00,
2013-02-26 00:08:00,39.4,34.7,30.33,WSW,252,0.0,1.0,83,0.00,OVC,OVC,0.00,WeatherDisplay:10.37,2013-02-26 08:08:00,
2013-02-26 00:18:00,39.3,34.9,30.32,WSW,256,0.0,0.0,84,0.00,OVC,OVC,0.00,WeatherDisplay:10.37,2013-02-26 08:18:00,
2013-02-26 00:23:00,39.3,34.6,30.32,West,261,1.0,4.0,83,0.00,OVC,OVC,0.00,WeatherDisplay:10.37,2013-02-26 08:23:00,
2013-02-26 00:28:00,39.3,34.6,30.32,SW,219,0.0,2.0,83,0.00,OVC,OVC,0.00,WeatherDisplay:10.37,2013-02-26 08:28:00,
2013-02-26 00:33:00,39.3,34.9,30.33,WSW,254,1.0,2.0,84,0.00,OVC,OVC,0.00,WeatherDisplay:10.37,2013-02-26 08:33:00,
2013-02-26 00:38:00,39.3,34.9,30.32,WSW,252,1.0,3.0,84,0.00,OVC,OVC,0.00,WeatherDisplay:10.37,2013-02-26 08:38:00,
2013-02-26 00:43:00,39.2,34.8,30.33,West,267,1.0,2.0,84,0.00,OVC,OVC,0.00,WeatherDisplay:10.37,2013-02-26 08:43:00,
2013-02-26 00:48:00,39.2,34.8,30.33,WSW,257,0.0,3.0,84,0.00,OVC,OVC,0.00,WeatherDisplay:10.37,2013-02-26 08:48:00,
2013-02-26 00:53:00,39.1,34.7,30.33,WSW,251,1.0,3.0,84,0.00,OVC,OVC,0.00,WeatherDisplay:10.37,2013-02-26 08:53:00,
2013-02-26 00:58:00,39.2,34.8,30.33,WSW,255,1.0,4.0,84,0.00,OVC,OVC,0.00,WeatherDisplay:10.37,2013-02-26 08:58:00,
2013-02-26 01:03:00,39.1,34.7,30.33,West,264,1.0,3.0,84,0.00,OVC,OVC,0.00,WeatherDisplay:10.37,2013-02-26 09:03:00,
2013-02-26 01:08:00,39.1,34.7,30.33,West,263,0.0,2.0,84,0.00,OVC,OVC,0.00,WeatherDisplay:10.37,2013-02-26 09:08:00,
2013-02-26 01:13:00,39.1,34.7,30.34,NW,313,1.0,3.0,84,0.00,OVC,OVC,0.00,WeatherDisplay:10.37,2013-02-26 09:13:00,
2013-02-26 01:18:00,39.2,34.7,30.34,West,277,1.0,4.0,84,0.00,OVC,OVC,0.00,WeatherDisplay:10.37,2013-02-26 09:18:00,
2013-02-26 01:23:00,39.2,34.8,30.34,WSW,251,1.0,5.0,84,0.00,OVC,OVC,0.00,WeatherDisplay:10.37,2013-02-26 09:23:00,
2013-02-26 01:28:00,39.2,34.5,30.34,WSW,251,1.0,5.0,83,0.00,OVC,OVC,0.00,WeatherDisplay:10.37,2013-02-26 09:28:00,
2013-02-26 01:33:00,39.2,34.8,30.34,WSW,246,0.0,1.0,84,0.00,OVC,OVC,0.00,WeatherDisplay:10.37,2013-02-26 09:33:00,
2013-02-26 01:38:00,39.2,34.8,30.34,SW,235,1.0,4.0,84,0.00,OVC,OVC,0.00,WeatherDisplay:10.37,2013-02-26 09:38:00,
2013-02-26 01:43:00,39.2,34.8,30.34,WSW,256,2.0,4.0,84,0.00,OVC,OVC,0.00,WeatherDisplay:10.37,2013-02-26 09:43:00,
2013-02-26 01:48:00,39.2,34.8,30.34,WSW,250,1.0,3.0,84,0.00,OVC,OVC,0.00,WeatherDisplay:10.37,2013-02-26 09:48:00,
2013-02-26 01:53:00,39.2,34.8,30.34,WSW,245,1.0,3.0,84,0.00,OVC,OVC,0.00,WeatherDisplay:10.37,2013-02-26 09:53:00,
2013-02-26 01:58:00,39.2,34.8,30.34,WSW,254,0.0,3.0,84,0.00,OVC,OVC,0.00,WeatherDisplay:10.37,2013-02-26 09:58:00,
2013-02-26 02:03:00,39.2,34.8,30.34,WNW,291,1.0,4.0,84,0.00,OVC,OVC,0.00,WeatherDisplay:10.37,2013-02-26 10:03:00,
2013-02-26 02:08:00,39.1,34.7,30.34,West,270,0.0,4.0,84,0.00,OVC,OVC,0.00,WeatherDisplay:10.37,2013-02-26 10:08:00,
2013-02-26 02:13:00,39.1,34.7,30.34,WSW,254,1.0,4.0,84,0.00,OVC,OVC,0.00,WeatherDisplay:10.37,2013-02-26 10:13:00,
2013-02-26 02:18:00,39.1,34.7,30.34,WSW,241,0.0,2.0,84,0.00,OVC,OVC,0.00,WeatherDisplay:10.37,2013-02-26 10:18:00,
2013-02-26 02:23:00,39.1,34.7,30.34,WSW,247,1.0,3.0,84,0.00,OVC,OVC,0.00,WeatherDisplay:10.37,2013-02-26 10:23:00,
2013-02-26 02:28:00,39.1,34.6,30.35,West,259,0.0,2.0,84,0.00,OVC,OVC,0.00,WeatherDisplay:10.37,2013-02-26 10:28:00,
2013-02-26 02:33:00,39.0,34.6,30.34,WSW,252,0.0,2.0,84,0.00,OVC,OVC,0.00,WeatherDisplay:10.37,2013-02-26 10:33:00,
2013-02-26 02:38:00,39.0,34.9,30.34,WSW,251,0.0,4.0,85,0.00,OVC,OVC,0.00,WeatherDisplay:10.37,2013-02-26 10:38:00,
2013-02-26 02:43:00,39.0,34.6,30.34,WSW,253,1.0,3.0,84,0.00,OVC,OVC,0.00,WeatherDisplay:10.37,2013-02-26 10:43:00,
2013-02-26 02:48:00,39.0,34.9,30.34,WSW,252,1.0,2.0,85,0.00,OVC,OVC,0.00,WeatherDisplay:10.37,2013-02-26 10:48:00,
2013-02-26 02:53:00,39.0,34.9,30.35,SW,225,0.0,3.0,85,0.00,OVC,OVC,0.00,WeatherDisplay:10.37,2013-02-26 10:53:00,
2013-02-26 02:58:00,39.0,34.9,30.35,SW,221,0.0,4.0,85,0.00,OVC,OVC,0.00,WeatherDisplay:10.37,2013-02-26 10:58:00,
2013-02-26 03:03:00,39.0,34.9,30.34,West,265,1.0,2.0,85,0.00,OVC,OVC,0.00,WeatherDisplay:10.37,2013-02-26 11:03:00,
2013-02-26 03:08:00,39.0,34.9,30.34,West,276,0.0,2.0,85,0.00,OVC,OVC,0.00,WeatherDisplay:10.37,2013-02-26 11:08:00,
2013-02-26 03:13:00,39.0,34.9,30.34,WSW,241,1.0,3.0,85,0.00,OVC,OVC,0.00,WeatherDisplay:10.37,2013-02-26 11:13:00,
2013-02-26 03:18:00,39.0,34.9,30.35,SSW,206,1.0,2.0,85,0.00,OVC,OVC,0.00,WeatherDisplay:10.37,2013-02-26 11:18:00,
2013-02-26 03:23:00,39.0,34.9,30.35,WSW,254,1.0,3.0,85,0.00,OVC,OVC,0.00,WeatherDisplay:10.37,2013-02-26 11:23:00,
2013-02-26 03:28:00,39.0,34.9,30.35,West,259,0.0,2.0,85,0.00,OVC,OVC,0.00,WeatherDisplay:10.37,2013-02-26 11:28:00,
2013-02-26 03:33:00,39.0,34.9,30.35,WSW,248,0.0,1.0,85,0.00,OVC,OVC,0.00,WeatherDisplay:10.37,2013-02-26 11:33:00,
2013-02-26 03:38:00,39.0,34.6,30.35,WSW,257,0.0,1.0,84,0.00,OVC,OVC,0.00,WeatherDisplay:10.37,2013-02-26 11:38:00,
2013-02-26 03:43:00,39.0,34.6,30.35,West,278,0.0,2.0,84,0.00,OVC,OVC,0.00,WeatherDisplay:10.37,2013-02-26 11:43:00,
2013-02-26 03:48:00,39.0,34.6,30.35,West,273,0.0,2.0,84,0.00,OVC,OVC,0.00,WeatherDisplay:10.37,2013-02-26 11:48:00,
2013-02-26 03:53:00,38.9,34.5,30.35,WSW,245,1.0,3.0,84,0.00,OVC,OVC,0.00,WeatherDisplay:10.37,2013-02-26 11:53:00,
2013-02-26 03:58:00,38.8,34.4,30.35,SW,227,0.0,1.0,84,0.00,OVC,OVC,0.00,WeatherDisplay:10.37,2013-02-26 11:58:00,
2013-02-26 04:03:00,38.8,34.4,30.35,WSW,258,0.0,1.0,84,0.00,OVC,OVC,0.00,WeatherDisplay:10.37,2013-02-26 12:03:00,
2013-02-26 04:08:00,38.7,34.3,30.35,WSW,249,0.0,0.0,84,0.00,OVC,OVC,0.00,WeatherDisplay:10.37,2013-02-26 12:08:00,
2013-02-26 04:13:00,38.7,34.3,30.35,WSW,246,0.0,0.0,84,0.00,OVC,OVC,0.00,WeatherDisplay:10.37,2013-02-26 12:13:00,
2013-02-26 04:18:00,38.6,34.2,30.35,WSW,253,0.0,0.0,84,0.00,OVC,OVC,0.00,WeatherDisplay:10.37,2013-02-26 12:18:00,
2013-02-26 04:23:00,38.5,34.4,30.35,WSW,252,0.0,0.0,85,0.00,OVC,OVC,0.00,WeatherDisplay:10.37,2013-02-26 12:23:00,
2013-02-26 04:28:00,38.5,34.4,30.35,West,274,0.0,0.0,85,0.00,OVC,OVC,0.00,WeatherDisplay:10.37,2013-02-26 12:28:00,
2013-02-26 04:33:00,38.5,34.4,30.35,WNW,293,0.0,0.0,85,0.00,OVC,OVC,0.00,WeatherDisplay:10.37,2013-02-26 12:33:00,
2013-02-26 04:38:00,38.5,34.4,30.35,WNW,299,0.0,0.0,85,0.00,OVC,OVC,0.00,WeatherDisplay:10.37,2013-02-26 12:38:00,
2013-02-26 04:43:00,38.5,34.4,30.35,WNW,291,1.0,1.0,85,0.00,OVC,OVC,0.00,WeatherDisplay:10.37,2013-02-26 12:43:00,
2013-02-26 04:48:00,38.6,34.5,30.35,WSW,253,0.0,1.0,85,0.00,OVC,OVC,0.00,WeatherDisplay:10.37,2013-02-26 12:48:00,
2013-02-26 04:53:00,38.7,34.6,30.36,SSE,151,0.0,1.0,85,0.00,OVC,OVC,0.00,WeatherDisplay:10.37,2013-02-26 12:53:00,
2013-02-26 04:58:00,38.7,34.6,30.36,ESE,120,0.0,1.0,85,0.00,OVC,OVC,0.00,WeatherDisplay:10.37,2013-02-26 12:58:00,
2013-02-26 05:03:00,38.8,34.4,30.36,WSW,246,0.0,1.0,84,0.00,OVC,OVC,0.00,WeatherDisplay:10.37,2013-02-26 13:03:00,
2013-02-26 05:08:00,38.9,34.8,30.36,West,261,0.0,1.0,85,0.00,OVC,OVC,0.00,WeatherDisplay:10.37,2013-02-26 13:08:00,
2013-02-26 05:13:00,38.8,34.7,30.36,SSW,198,0.0,0.0,85,0.00,OVC,OVC,0.00,WeatherDisplay:10.37,2013-02-26 13:13:00,
2013-02-26 05:18:00,38.9,34.8,30.36,SSE,166,1.0,3.0,85,0.00,OVC,OVC,0.00,WeatherDisplay:10.37,2013-02-26 13:18:00,
2013-02-26 05:23:00,38.9,34.8,30.36,NW,318,0.0,1.0,85,0.00,OVC,OVC,0.00,WeatherDisplay:10.37,2013-02-26 13:23:00,
2013-02-26 05:28:00,38.9,34.8,30.36,West,265,0.0,1.0,85,0.00,OVC,OVC,0.00,WeatherDisplay:10.37,2013-02-26 13:28:00,
2013-02-26 05:33:00,38.9,34.5,30.36,WSW,238,0.0,3.0,84,0.00,OVC,OVC,0.00,WeatherDisplay:10.37,2013-02-26 13:33:00,
2013-02-26 05:38:00,39.1,34.7,30.36,SW,231,1.0,4.0,84,0.00,OVC,OVC,0.00,WeatherDisplay:10.37,2013-02-26 13:38:00,
2013-02-26 05:43:00,39.1,34.7,30.36,ENE,77,0.0,1.0,84,0.00,OVC,OVC,0.00,WeatherDisplay:10.37,2013-02-26 13:43:00,
2013-02-26 05:48:00,39.1,34.4,30.36,NW,318,0.0,2.0,83,0.00,OVC,OVC,0.00,WeatherDisplay:10.37,2013-02-26 13:48:00,
2013-02-26 05:53:00,39.1,34.4,30.36,West,261,0.0,1.0,83,0.00,OVC,OVC,0.00,WeatherDisplay:10.37,2013-02-26 13:53:00,
2013-02-26 05:58:00,39.1,34.4,30.36,WNW,285,0.0,1.0,83,0.00,OVC,OVC,0.00,WeatherDisplay:10.37,2013-02-26 13:58:00,
2013-02-26 06:03:00,39.1,34.3,30.36,North,350,0.0,4.0,83,0.00,OVC,OVC,0.00,WeatherDisplay:10.37,2013-02-26 14:03:00,
2013-02-26 06:08:00,39.1,34.1,30.36,West,266,0.0,3.0,82,0.00,OVC,OVC,0.00,WeatherDisplay:10.37,2013-02-26 14:08:00,
2013-02-26 06:13:00,39.1,34.1,30.36,WSW,252,0.0,2.0,82,0.00,OVC,OVC,0.00,WeatherDisplay:10.37,2013-02-26 14:13:00,
2013-02-26 06:18:00,39.1,34.1,30.36,WSW,257,0.0,1.0,82,0.00,OVC,OVC,0.00,WeatherDisplay:10.37,2013-02-26 14:18:00,
2013-02-26 06:23:00,39.1,34.1,30.36,WSW,247,0.0,2.0,82,0.00,OVC,OVC,0.00,WeatherDisplay:10.37,2013-02-26 14:23:00,
2013-02-26 06:28:00,39.1,34.1,30.36,NW,308,0.0,1.0,82,0.00,OVC,OVC,0.00,WeatherDisplay:10.37,2013-02-26 14:28:00,
2013-02-26 06:33:00,39.2,33.9,30.36,WNW,292,1.0,3.0,81,0.00,OVC,OVC,0.00,WeatherDisplay:10.37,2013-02-26 14:33:00,
2013-02-26 06:38:00,39.2,33.9,30.36,WSW,250,0.0,1.0,81,0.00,OVC,OVC,0.00,WeatherDisplay:10.37,2013-02-26 14:38:00,
2013-02-26 06:43:00,39.3,33.9,30.37,WSW,248,0.0,1.0,81,0.00,OVC,OVC,0.00,WeatherDisplay:10.37,2013-02-26 14:43:00,
2013-02-26 06:48:00,39.3,33.9,30.37,West,259,1.0,3.0,81,0.00,OVC,OVC,0.00,WeatherDisplay:10.37,2013-02-26 14:48:00,
2013-02-26 06:53:00,39.2,33.6,30.37,WSW,258,0.0,5.0,80,0.00,OVC,OVC,0.00,WeatherDisplay:10.37,2013-02-26 14:53:00,
2013-02-26 06:58:00,39.1,33.5,30.37,West,265,0.0,2.0,80,0.00,OVC,OVC,0.00,WeatherDisplay:10.37,2013-02-26 14:58:00,
2013-02-26 07:03:00,38.9,33.3,30.37,West,267,0.0,2.0,80,0.00,OVC,OVC,0.00,WeatherDisplay:10.37,2013-02-26 15:03:00,
2013-02-26 07:08:00,38.7,33.1,30.37,West,270,0.0,1.0,80,0.00,OVC,OVC,0.00,WeatherDisplay:10.37,2013-02-26 15:08:00,
2013-02-26 07:18:00,38.4,33.1,30.37,WSW,251,0.0,1.0,81,0.00,OVC,OVC,0.00,WeatherDisplay:10.37,2013-02-26 15:18:00,
2013-02-26 07:23:00,38.3,33.0,30.37,South,173,0.0,1.0,81,0.00,OVC,OVC,0.00,WeatherDisplay:10.37,2013-02-26 15:23:00,
2013-02-26 07:28:00,38.2,32.9,30.37,East,100,0.0,1.0,81,0.00,OVC,OVC,0.00,WeatherDisplay:10.37,2013-02-26 15:28:00,
2013-02-26 07:38:00,38.5,33.2,30.37,SSE,151,0.0,2.0,81,0.00,OVC,OVC,0.00,WeatherDisplay:10.37,2013-02-26 15:38:00,
2013-02-26 07:43:00,38.7,33.4,30.37,SW,220,0.0,2.0,81,0.00,OVC,OVC,0.00,WeatherDisplay:10.37,2013-02-26 15:43:00,
2013-02-26 07:48:00,39.0,33.4,30.37,WSW,238,0.0,2.0,80,0.00,OVC,OVC,0.00,WeatherDisplay:10.37,2013-02-26 15:48:00,
2013-02-26 07:53:00,39.4,34.0,30.37,WSW,242,0.0,1.0,81,0.00,OVC,OVC,0.00,WeatherDisplay:10.37,2013-02-26 15:53:00,
2013-02-26 07:58:00,39.7,34.1,30.37,SW,217,0.0,1.0,80,0.00,OVC,OVC,0.00,WeatherDisplay:10.37,2013-02-26 15:58:00,
2013-02-26 08:03:00,40.1,34.1,30.37,SSE,161,0.0,2.0,79,0.00,OVC,OVC,0.00,WeatherDisplay:10.37,2013-02-26 16:03:00,
2013-02-26 08:08:00,40.4,33.8,30.37,WSW,254,0.0,3.0,77,0.00,OVC,OVC,0.00,WeatherDisplay:10.37,2013-02-26 16:08:00,
2013-02-26 08:13:00,40.6,33.6,30.37,West,266,1.0,4.0,76,0.00,OVC,OVC,0.00,WeatherDisplay:10.37,2013-02-26 16:13:00,
2013-02-26 08:18:00,40.6,33.6,30.38,WSW,246,1.0,3.0,76,0.00,OVC,OVC,0.00,WeatherDisplay:10.37,2013-02-26 16:18:00,
2013-02-26 08:23:00,40.5,33.5,30.38,West,265,0.0,3.0,76,0.00,OVC,OVC,0.00,WeatherDisplay:10.37,2013-02-26 16:23:00,
2013-02-26 08:28:00,40.4,33.4,30.38,West,281,1.0,2.0,76,0.00,OVC,OVC,0.00,WeatherDisplay:10.37,2013-02-26 16:28:00,
2013-02-26 08:33:00,40.3,33.3,30.38,WSW,243,0.0,2.0,76,0.00,OVC,OVC,0.00,WeatherDisplay:10.37,2013-02-26 16:33:00,
2013-02-26 08:38:00,40.4,33.4,30.38,WSW,238,0.0,2.0,76,0.00,OVC,OVC,0.00,WeatherDisplay:10.37,2013-02-26 16:38:00,
2013-02-26 08:43:00,40.5,33.5,30.38,WSW,245,0.0,1.0,76,0.00,OVC,OVC,0.00,WeatherDisplay:10.37,2013-02-26 16:43:00,
2013-02-26 08:48:00,40.6,33.3,30.38,WSW,254,1.0,3.0,75,0.00,OVC,OVC,0.00,WeatherDisplay:10.37,2013-02-26 16:48:00,
2013-02-26 08:53:00,40.7,33.7,30.38,West,260,0.0,2.0,76,0.00,OVC,OVC,0.00,WeatherDisplay:10.37,2013-02-26 16:53:00,
2013-02-26 09:03:00,40.9,33.3,30.38,SSW,207,1.0,4.0,74,0.00,OVC,OVC,0.00,WeatherDisplay:10.37,2013-02-26 17:03:00,
2013-02-26 09:13:00,41.3,34.0,30.38,SW,233,1.0,3.0,75,0.00,OVC,OVC,0.00,WeatherDisplay:10.37,2013-02-26 17:13:00,
2013-02-26 09:18:00,41.5,34.2,30.38,SW,226,0.0,3.0,75,0.00,OVC,OVC,0.00,WeatherDisplay:10.37,2013-02-26 17:18:00,
2013-02-26 09:23:00,41.7,33.7,30.38,WSW,237,0.0,3.0,73,0.00,OVC,OVC,0.00,WeatherDisplay:10.37,2013-02-26 17:23:00,
2013-02-26 09:28:00,41.8,33.5,30.38,WSW,250,1.0,4.0,72,0.00,OVC,OVC,0.00,WeatherDisplay:10.37,2013-02-26 17:28:00,
2013-02-26 09:33:00,42.1,34.4,30.37,SW,231,0.0,2.0,74,0.00,OVC,OVC,0.00,WeatherDisplay:10.37,2013-02-26 17:33:00,
2013-02-26 09:38:00,42.4,33.7,30.37,SW,234,2.0,4.0,71,0.00,OVC,OVC,0.00,WeatherDisplay:10.37,2013-02-26 17:38:00,
2013-02-26 09:43:00,42.5,33.8,30.37,WSW,245,0.0,2.0,71,0.00,OVC,OVC,0.00,WeatherDisplay:10.37,2013-02-26 17:43:00,
2013-02-26 09:48:00,42.8,34.0,30.36,WSW,248,1.0,3.0,71,0.00,OVC,OVC,0.00,WeatherDisplay:10.37,2013-02-26 17:48:00,
2013-02-26 09:53:00,43.0,33.9,30.36,SW,230,2.0,9.0,70,0.00,OVC,OVC,0.00,WeatherDisplay:10.37,2013-02-26 17:53:00,
2013-02-26 09:58:00,43.5,34.0,30.36,SW,228,1.0,3.0,69,0.00,OVC,OVC,0.00,WeatherDisplay:10.37,2013-02-26 17:58:00,
2013-02-26 10:03:00,43.6,33.7,30.36,WSW,252,1.0,4.0,68,0.00,OVC,OVC,0.00,WeatherDisplay:10.37,2013-02-26 18:03:00,
2013-02-26 10:08:00,43.5,33.6,30.36,West,264,1.0,3.0,68,0.00,OVC,OVC,0.00,WeatherDisplay:10.37,2013-02-26 18:08:00,
2013-02-26 10:13:00,43.6,34.0,30.35,NW,311,0.0,3.0,69,0.00,OVC,OVC,0.00,WeatherDisplay:10.37,2013-02-26 18:13:00,
2013-02-26 10:18:00,43.9,33.3,30.35,West,265,1.0,3.0,66,0.00,OVC,OVC,0.00,WeatherDisplay:10.37,2013-02-26 18:18:00,
2013-02-26 10:23:00,44.2,33.2,30.35,SSW,208,1.0,5.0,65,0.00,OVC,OVC,0.00,WeatherDisplay:10.37,2013-02-26 18:23:00,
2013-02-26 10:28:00,44.2,32.8,30.35,SW,235,2.0,5.0,64,0.00,OVC,OVC,0.00,WeatherDisplay:10.37,2013-02-26 18:28:00,
2013-02-26 10:33:00,44.2,33.2,30.35,WSW,253,1.0,3.0,65,0.00,OVC,OVC,0.00,WeatherDisplay:10.37,2013-02-26 18:33:00,
2013-02-26 10:38:00,44.2,33.2,30.35,West,267,1.0,4.0,65,0.00,OVC,OVC,0.00,WeatherDisplay:10.37,2013-02-26 18:38:00,
2013-02-26 10:43:00,44.3,33.3,30.34,West,260,1.0,5.0,65,0.00,OVC,OVC,0.00,WeatherDisplay:10.37,2013-02-26 18:43:00,
2013-02-26 10:48:00,44.6,34.4,30.34,WSW,256,0.0,3.0,67,0.00,OVC,OVC,0.00,WeatherDisplay:10.37,2013-02-26 18:48:00,
2013-02-26 10:53:00,44.7,33.3,30.34,WSW,255,1.0,5.0,64,0.00,OVC,OVC,0.00,WeatherDisplay:10.37,2013-02-26 18:53:00,
2013-02-26 10:58:00,44.7,33.3,30.34,SW,233,0.0,4.0,64,0.00,OVC,OVC,0.00,WeatherDisplay:10.37,2013-02-26 18:58:00,
2013-02-26 11:03:00,44.8,32.9,30.33,WSW,245,2.0,5.0,63,0.00,OVC,OVC,0.00,WeatherDisplay:10.37,2013-02-26 19:03:00,
2013-02-26 11:08:00,44.8,33.4,30.33,WSW,248,1.0,4.0,64,0.00,OVC,OVC,0.00,WeatherDisplay:10.37,2013-02-26 19:08:00,
2013-02-26 11:13:00,44.8,32.6,30.33,WSW,249,2.0,5.0,62,0.00,OVC,OVC,0.00,WeatherDisplay:10.37,2013-02-26 19:13:00,
2013-02-26 11:18:00,44.6,32.8,30.33,West,260,0.0,4.0,63,0.00,OVC,OVC,0.00,WeatherDisplay:10.37,2013-02-26 19:18:00,
2013-02-26 11:23:00,44.9,33.5,30.32,NW,322,0.0,3.0,64,0.00,OVC,OVC,0.00,WeatherDisplay:10.37,2013-02-26 19:23:00,
2013-02-26 11:28:00,45.2,32.5,30.32,West,274,1.0,3.0,61,0.00,OVC,OVC,0.00,WeatherDisplay:10.37,2013-02-26 19:28:00,
2013-02-26 11:33:00,45.2,32.6,30.32,WSW,252,1.0,2.0,61,0.00,OVC,OVC,0.00,WeatherDisplay:10.37,2013-02-26 19:33:00,
2013-02-26 11:38:00,45.1,32.4,30.32,West,259,1.0,3.0,61,0.00,OVC,OVC,0.00,WeatherDisplay:10.37,2013-02-26 19:38:00,
2013-02-26 11:43:00,45.2,33.0,30.33,West,269,1.0,4.0,62,0.00,OVC,OVC,0.00,WeatherDisplay:10.37,2013-02-26 19:43:00,
2013-02-26 11:48:00,45.3,33.0,30.33,WNW,293,1.0,4.0,62,0.00,OVC,OVC,0.00,WeatherDisplay:10.37,2013-02-26 19:48:00,
2013-02-26 11:53:00,45.3,32.6,30.32,West,280,1.0,3.0,61,0.00,OVC,OVC,0.00,WeatherDisplay:10.37,2013-02-26 19:53:00,
2013-02-26 12:03:00,45.2,32.5,30.32,SW,234,1.0,3.0,61,0.00,OVC,OVC,0.00,WeatherDisplay:10.37,2013-02-26 20:03:00,
2013-02-26 12:08:00,45.2,32.1,30.32,WSW,252,1.0,3.0,60,0.00,OVC,OVC,0.00,WeatherDisplay:10.37,2013-02-26 20:08:00,
2013-02-26 12:13:00,45.3,32.6,30.32,WSW,251,1.0,3.0,61,0.00,OVC,OVC,0.00,WeatherDisplay:10.37,2013-02-26 20:13:00,
2013-02-26 12:18:00,45.2,31.7,30.32,WSW,251,1.0,5.0,59,0.00,OVC,OVC,0.00,WeatherDisplay:10.37,2013-02-26 20:18:00,
2013-02-26 12:23:00,45.2,31.3,30.32,West,267,1.0,4.0,58,0.00,OVC,OVC,0.00,WeatherDisplay:10.37,2013-02-26 20:23:00,
2013-02-26 12:28:00,45.4,31.9,30.31,West,264,1.0,3.0,59,0.00,OVC,OVC,0.00,WeatherDisplay:10.37,2013-02-26 20:28:00,
2013-02-26 12:33:00,45.6,32.5,30.31,West,267,0.0,4.0,60,0.00,OVC,OVC,0.00,WeatherDisplay:10.37,2013-02-26 20:33:00,
2013-02-26 12:38:00,45.9,32.8,30.31,West,261,0.0,4.0,60,0.00,OVC,OVC,0.00,WeatherDisplay:10.37,2013-02-26 20:38:00,
2013-02-26 12:43:00,45.9,32.4,30.31,SW,230,1.0,4.0,59,0.00,OVC,OVC,0.00,WeatherDisplay:10.37,2013-02-26 20:43:00,
2013-02-26 12:48:00,46.1,32.1,30.30,SSE,165,0.0,3.0,58,0.00,OVC,OVC,0.00,WeatherDisplay:10.37,2013-02-26 20:48:00,
2013-02-26 12:53:00,46.2,32.2,30.30,SW,234,1.0,3.0,58,0.00,OVC,OVC,0.00,WeatherDisplay:10.37,2013-02-26 20:53:00,
2013-02-26 12:58:00,46.2,32.2,30.30,SW,233,0.0,4.0,58,0.00,OVC,OVC,0.00,WeatherDisplay:10.37,2013-02-26 20:58:00,
2013-02-26 13:03:00,46.4,32.8,30.30,SSE,159,0.0,2.0,59,0.00,OVC,OVC,0.00,WeatherDisplay:10.37,2013-02-26 21:03:00,
2013-02-26 13:08:00,46.5,32.5,30.30,SSW,201,1.0,4.0,58,0.00,OVC,OVC,0.00,WeatherDisplay:10.37,2013-02-26 21:08:00,
2013-02-26 13:18:00,46.3,31.4,30.29,WSW,249,2.0,4.0,56,0.00,OVC,OVC,0.00,WeatherDisplay:10.37,2013-02-26 21:18:00,
2013-02-26 13:23:00,46.2,31.4,30.29,WSW,250,2.0,4.0,56,0.00,OVC,OVC,0.00,WeatherDisplay:10.37,2013-02-26 21:23:00,
2013-02-26 13:28:00,46.3,31.4,30.29,WSW,256,1.0,7.0,56,0.00,OVC,OVC,0.00,WeatherDisplay:10.37,2013-02-26 21:28:00,
2013-02-26 13:38:00,46.9,31.6,30.29,WSW,256,3.0,6.0,55,0.00,OVC,OVC,0.00,WeatherDisplay:10.37,2013-02-26 21:38:00,
2013-02-26 13:43:00,46.9,31.1,30.28,WSW,245,2.0,6.0,54,0.00,OVC,OVC,0.00,WeatherDisplay:10.37,2013-02-26 21:43:00,
2013-02-26 13:48:00,46.8,31.5,30.27,WSW,241,1.0,5.0,55,0.00,OVC,OVC,0.00,WeatherDisplay:10.37,2013-02-26 21:48:00,
2013-02-26 13:53:00,47.0,32.5,30.27,SSW,194,0.0,3.0,57,0.00,OVC,OVC,0.00,WeatherDisplay:10.37,2013-02-26 21:53:00,
2013-02-26 13:58:00,47.0,31.2,30.27,SSE,167,2.0,6.0,54,0.00,OVC,OVC,0.00,WeatherDisplay:10.37,2013-02-26 21:58:00,
2013-02-26 14:03:00,46.8,30.6,30.27,WSW,239,2.0,6.0,53,0.00,OVC,OVC,0.00,WeatherDisplay:10.37,2013-02-26 22:03:00,
2013-02-26 14:08:00,46.5,30.7,30.27,WSW,251,1.0,4.0,54,0.00,OVC,OVC,0.00,WeatherDisplay:10.37,2013-02-26 22:08:00,
2013-02-26 14:13:00,46.4,30.6,30.27,WSW,251,1.0,7.0,54,0.00,OVC,OVC,0.00,WeatherDisplay:10.37,2013-02-26 22:13:00,
2013-02-26 14:18:00,46.4,30.6,30.27,WSW,253,0.0,2.0,54,0.00,OVC,OVC,0.00,WeatherDisplay:10.37,2013-02-26 22:18:00,
2013-02-26 14:23:00,46.4,31.5,30.27,West,272,2.0,4.0,56,0.00,OVC,OVC,0.00,WeatherDisplay:10.37,2013-02-26 22:23:00,
2013-02-26 14:28:00,46.2,30.9,30.27,West,261,2.0,5.0,55,0.00,OVC,OVC,0.00,WeatherDisplay:10.37,2013-02-26 22:28:00,
2013-02-26 14:33:00,46.1,31.7,30.27,West,259,1.0,3.0,57,0.00,OVC,OVC,0.00,WeatherDisplay:10.37,2013-02-26 22:33:00,
2013-02-26 14:38:00,46.2,31.4,30.27,West,263,0.0,2.0,56,0.00,OVC,OVC,0.00,WeatherDisplay:10.37,2013-02-26 22:38:00,
2013-02-26 14:43:00,46.4,32.0,30.27,WSW,254,1.0,2.0,57,0.00,OVC,OVC,0.00,WeatherDisplay:10.37,2013-02-26 22:43:00,
2013-02-26 14:48:00,46.7,32.3,30.27,WSW,248,1.0,3.0,57,0.00,OVC,OVC,0.00,WeatherDisplay:10.37,2013-02-26 22:48:00,
2013-02-26 14:53:00,46.9,32.0,30.27,West,259,1.0,3.0,56,0.00,OVC,OVC,0.00,WeatherDisplay:10.37,2013-02-26 22:53:00,
2013-02-26 14:58:00,46.9,31.6,30.26,West,265,1.0,3.0,55,0.00,OVC,OVC,0.00,WeatherDisplay:10.37,2013-02-26 22:58:00,
2013-02-26 15:03:00,46.7,30.9,30.27,WSW,252,1.0,4.0,54,0.00,OVC,OVC,0.00,WeatherDisplay:10.37,2013-02-26 23:03:00,
2013-02-26 15:08:00,46.6,31.3,30.27,WSW,247,1.0,4.0,55,0.00,OVC,OVC,0.00,WeatherDisplay:10.37,2013-02-26 23:08:00,
2013-02-26 15:13:00,46.6,31.8,30.26,NNW,328,1.0,3.0,56,0.00,OVC,OVC,0.00,WeatherDisplay:10.37,2013-02-26 23:13:00,
2013-02-26 15:18:00,46.6,31.3,30.26,NW,323,2.0,4.0,55,0.00,OVC,OVC,0.00,WeatherDisplay:10.37,2013-02-26 23:18:00,
2013-02-26 15:23:00,46.5,31.6,30.26,SW,229,0.0,4.0,56,0.00,OVC,OVC,0.00,WeatherDisplay:10.37,2013-02-26 23:23:00,
2013-02-26 15:28:00,46.5,31.6,30.26,WSW,254,1.0,3.0,56,0.00,OVC,OVC,0.00,WeatherDisplay:10.37,2013-02-26 23:28:00,
2013-02-26 15:33:00,46.4,32.0,30.26,WSW,257,0.0,1.0,57,0.00,OVC,OVC,0.00,WeatherDisplay:10.37,2013-02-26 23:33:00,
2013-02-26 15:38:00,46.3,31.9,30.26,WSW,244,0.0,2.0,57,0.00,OVC,OVC,0.00,WeatherDisplay:10.37,2013-02-26 23:38:00,
2013-02-26 15:43:00,46.2,31.8,30.26,WSW,245,1.0,3.0,57,0.00,OVC,OVC,0.00,WeatherDisplay:10.37,2013-02-26 23:43:00,
2013-02-26 15:48:00,46.0,32.0,30.26,WSW,246,0.0,3.0,58,0.00,OVC,OVC,0.00,WeatherDisplay:10.37,2013-02-26 23:48:00,
2013-02-26 15:53:00,46.0,32.0,30.27,WSW,252,1.0,4.0,58,0.00,OVC,OVC,0.00,WeatherDisplay:10.37,2013-02-26 23:53:00,
2013-02-26 15:58:00,45.9,31.9,30.27,WSW,246,1.0,2.0,58,0.00,OVC,OVC,0.00,WeatherDisplay:10.37,2013-02-26 23:58:00,
2013-02-26 16:03:00,45.8,31.9,30.27,WSW,246,1.0,4.0,58,0.00,OVC,OVC,0.00,WeatherDisplay:10.37,2013-02-27 00:03:00,
2013-02-26 16:08:00,45.7,32.2,30.26,WSW,257,0.0,2.0,59,0.00,OVC,OVC,0.00,WeatherDisplay:10.37,2013-02-27 00:08:00,
2013-02-26 16:13:00,45.6,31.7,30.26,West,268,1.0,5.0,58,0.00,OVC,OVC,0.00,WeatherDisplay:10.37,2013-02-27 00:13:00,
2013-02-26 16:18:00,45.5,31.6,30.26,West,260,1.0,5.0,58,0.00,OVC,OVC,0.00,WeatherDisplay:10.37,2013-02-27 00:18:00,
2013-02-26 16:23:00,45.5,31.6,30.26,WSW,253,1.0,3.0,58,0.00,OVC,OVC,0.00,WeatherDisplay:10.37,2013-02-27 00:23:00,
2013-02-26 16:28:00,45.5,31.6,30.26,West,278,1.0,4.0,58,0.00,OVC,OVC,0.00,WeatherDisplay:10.37,2013-02-27 00:28:00,
2013-02-26 16:33:00,45.5,32.0,30.26,WNW,291,0.0,3.0,59,0.00,OVC,OVC,0.00,WeatherDisplay:10.37,2013-02-27 00:33:00,
2013-02-26 16:38:00,45.5,32.0,30.26,WSW,255,0.0,2.0,59,0.00,OVC,OVC,0.00,WeatherDisplay:10.37,2013-02-27 00:38:00,
2013-02-26 16:43:00,45.3,31.8,30.26,WSW,252,1.0,2.0,59,0.00,OVC,OVC,0.00,WeatherDisplay:10.37,2013-02-27 00:43:00,
2013-02-26 16:48:00,45.2,32.2,30.25,West,278,0.0,2.0,60,0.00,OVC,OVC,0.00,WeatherDisplay:10.37,2013-02-27 00:48:00,
2013-02-26 16:53:00,45.1,32.1,30.25,West,264,1.0,3.0,60,0.00,OVC,OVC,0.00,WeatherDisplay:10.37,2013-02-27 00:53:00,
2013-02-26 16:58:00,45.0,32.3,30.26,WSW,254,1.0,3.0,61,0.00,OVC,OVC,0.00,WeatherDisplay:10.37,2013-02-27 00:58:00,
2013-02-26 17:03:00,45.0,32.3,30.25,WSW,245,0.0,2.0,61,0.00,OVC,OVC,0.00,WeatherDisplay:10.37,2013-02-27 01:03:00,
2013-02-26 17:08:00,44.9,32.6,30.25,SW,224,0.0,2.0,62,0.00,OVC,OVC,0.00,WeatherDisplay:10.37,2013-02-27 01:08:00,
2013-02-26 17:13:00,44.8,32.6,30.25,SW,216,0.0,3.0,62,0.00,OVC,OVC,0.00,WeatherDisplay:10.37,2013-02-27 01:13:00,
2013-02-26 17:18:00,44.7,32.5,30.25,East,89,0.0,1.0,62,0.00,OVC,OVC,0.00,WeatherDisplay:10.37,2013-02-27 01:18:00,
2013-02-26 17:23:00,44.6,32.8,30.25,SSE,151,0.0,1.0,63,0.00,OVC,OVC,0.00,WeatherDisplay:10.37,2013-02-27 01:23:00,
2013-02-26 17:28:00,44.5,32.7,30.25,WSW,256,0.0,2.0,63,0.00,OVC,OVC,0.00,WeatherDisplay:10.37,2013-02-27 01:28:00,
2013-02-26 17:33:00,44.3,32.5,30.25,West,260,0.0,1.0,63,0.00,OVC,OVC,0.00,WeatherDisplay:10.37,2013-02-27 01:33:00,
2013-02-26 17:38:00,44.3,32.8,30.25,WSW,249,0.0,1.0,64,0.00,OVC,OVC,0.00,WeatherDisplay:10.37,2013-02-27 01:38:00,
2013-02-26 17:43:00,44.1,32.7,30.25,SW,220,0.0,0.0,64,0.00,OVC,OVC,0.00,WeatherDisplay:10.37,2013-02-27 01:43:00,
2013-02-26 17:48:00,44.0,33.0,30.24,WSW,243,0.0,0.0,65,0.00,OVC,OVC,0.00,WeatherDisplay:10.37,2013-02-27 01:48:00,
2013-02-26 17:53:00,43.9,32.9,30.24,West,275,0.0,0.0,65,0.00,OVC,OVC,0.00,WeatherDisplay:10.37,2013-02-27 01:53:00,
2013-02-26 17:58:00,43.7,32.7,30.24,West,273,0.0,0.0,65,0.00,OVC,OVC,0.00,WeatherDisplay:10.37,2013-02-27 01:58:00,
2013-02-26 18:03:00,43.6,33.0,30.24,West,266,0.0,0.0,66,0.00,OVC,OVC,0.00,WeatherDisplay:10.37,2013-02-27 02:03:00,
2013-02-26 18:08:00,43.4,32.8,30.24,West,262,0.0,0.0,66,0.00,OVC,OVC,0.00,WeatherDisplay:10.37,2013-02-27 02:08:00,
2013-02-26 18:18:00,43.2,32.6,30.24,SW,219,0.0,1.0,66,0.00,OVC,OVC,0.00,WeatherDisplay:10.37,2013-02-27 02:18:00,
2013-02-26 18:28:00,43.1,32.6,30.24,West,274,0.0,1.0,66,0.00,OVC,OVC,0.00,WeatherDisplay:10.37,2013-02-27 02:28:00,
2013-02-26 18:38:00,43.0,32.5,30.24,West,278,0.0,1.0,66,0.00,OVC,OVC,0.00,WeatherDisplay:10.37,2013-02-27 02:38:00,
2013-02-26 18:43:00,43.0,32.8,30.24,WNW,286,0.0,1.0,67,0.00,OVC,OVC,0.00,WeatherDisplay:10.37,2013-02-27 02:43:00,
2013-02-26 18:48:00,42.9,33.1,30.25,West,270,0.0,1.0,68,0.00,OVC,OVC,0.00,WeatherDisplay:10.37,2013-02-27 02:48:00,
2013-02-26 18:53:00,42.9,33.1,30.24,WSW,253,0.0,0.0,68,0.00,OVC,OVC,0.00,WeatherDisplay:10.37,2013-02-27 02:53:00,
2013-02-26 18:58:00,42.8,33.3,30.24,WSW,253,0.0,0.0,69,0.00,OVC,OVC,0.00,WeatherDisplay:10.37,2013-02-27 02:58:00,
2013-02-26 19:03:00,42.7,33.2,30.24,WSW,253,0.0,0.0,69,0.00,OVC,OVC,0.00,WeatherDisplay:10.37,2013-02-27 03:03:00,
2013-02-26 19:08:00,42.5,32.7,30.24,WSW,244,0.0,0.0,68,0.00,OVC,OVC,0.00,WeatherDisplay:10.37,2013-02-27 03:08:00,
2013-02-26 19:13:00,42.5,32.7,30.24,SW,223,0.0,0.0,68,0.00,OVC,OVC,0.00,WeatherDisplay:10.37,2013-02-27 03:13:00,
2013-02-26 19:18:00,42.4,32.9,30.24,SSW,213,0.0,1.0,69,0.00,OVC,OVC,0.00,WeatherDisplay:10.37,2013-02-27 03:18:00,
2013-02-26 19:23:00,42.4,32.9,30.24,SW,214,0.0,0.0,69,0.00,OVC,OVC,0.00,WeatherDisplay:10.37,2013-02-27 03:23:00,
2013-02-26 19:28:00,42.3,33.2,30.24,SW,214,0.0,0.0,70,0.00,OVC,OVC,0.00,WeatherDisplay:10.37,2013-02-27 03:28:00,
2013-02-26 19:33:00,42.4,33.3,30.24,SW,215,1.0,3.0,70,0.00,OVC,OVC,0.00,WeatherDisplay:10.37,2013-02-27 03:33:00,
2013-02-26 19:38:00,42.5,34.5,30.23,SW,230,1.0,2.0,73,0.00,OVC,OVC,0.00,WeatherDisplay:10.37,2013-02-27 03:38:00,
2013-02-26 19:43:00,42.5,34.5,30.24,West,263,1.0,3.0,73,0.00,OVC,OVC,0.00,WeatherDisplay:10.37,2013-02-27 03:43:00,
2013-02-26 19:48:00,42.4,34.7,30.24,West,262,1.0,4.0,74,0.00,OVC,OVC,0.00,WeatherDisplay:10.37,2013-02-27 03:48:00,
2013-02-26 19:53:00,42.4,34.7,30.24,WSW,240,1.0,4.0,74,0.00,OVC,OVC,0.00,WeatherDisplay:10.37,2013-02-27 03:53:00,
2013-02-26 19:58:00,42.2,34.8,30.23,WNW,289,1.0,3.0,75,0.00,OVC,OVC,0.00,WeatherDisplay:10.37,2013-02-27 03:58:00,
2013-02-26 20:03:00,42.2,34.8,30.23,WSW,242,0.0,4.0,75,0.00,OVC,OVC,0.00,WeatherDisplay:10.37,2013-02-27 04:03:00,
2013-02-26 20:08:00,42.0,34.6,30.23,WSW,254,0.0,1.0,75,0.00,OVC,OVC,0.00,WeatherDisplay:10.37,2013-02-27 04:08:00,
2013-02-26 20:13:00,41.9,34.9,30.23,WSW,253,0.0,2.0,76,0.00,OVC,OVC,0.00,WeatherDisplay:10.37,2013-02-27 04:13:00,
2013-02-26 20:18:00,41.9,34.9,30.23,WSW,247,0.0,3.0,76,0.00,OVC,OVC,0.00,WeatherDisplay:10.37,2013-02-27 04:18:00,
2013-02-26 20:23:00,41.8,34.8,30.23,WSW,258,1.0,1.0,76,0.00,OVC,OVC,0.00,WeatherDisplay:10.37,2013-02-27 04:23:00,
2013-02-26 20:28:00,41.9,34.9,30.23,WSW,256,1.0,4.0,76,0.00,OVC,OVC,0.00,WeatherDisplay:10.37,2013-02-27 04:28:00,
2013-02-26 20:33:00,42.0,35.0,30.23,WSW,245,0.0,5.0,76,0.00,OVC,OVC,0.00,WeatherDisplay:10.37,2013-02-27 04:33:00,
2013-02-26 20:38:00,42.0,35.0,30.23,WNW,289,0.0,2.0,76,0.00,OVC,OVC,0.00,WeatherDisplay:10.37,2013-02-27 04:38:00,
2013-02-26 20:43:00,42.0,34.6,30.23,West,273,0.0,2.0,75,0.00,OVC,OVC,0.00,WeatherDisplay:10.37,2013-02-27 04:43:00,
2013-02-26 20:48:00,41.9,34.6,30.22,SW,230,0.0,1.0,75,0.00,OVC,OVC,0.00,WeatherDisplay:10.37,2013-02-27 04:48:00,
2013-02-26 20:53:00,41.9,34.8,30.22,SW,229,0.0,1.0,76,0.00,OVC,OVC,0.00,WeatherDisplay:10.37,2013-02-27 04:53:00,
2013-02-26 20:58:00,41.8,34.8,30.22,SW,234,0.0,0.0,76,0.00,OVC,OVC,0.00,WeatherDisplay:10.37,2013-02-27 04:58:00,
2013-02-26 21:03:00,41.7,35.0,30.22,SW,233,0.0,0.0,77,0.00,OVC,OVC,0.00,WeatherDisplay:10.37,2013-02-27 05:03:00,
2013-02-26 21:08:00,41.6,34.9,30.22,SW,232,0.0,0.0,77,0.00,OVC,OVC,0.00,WeatherDisplay:10.37,2013-02-27 05:08:00,
2013-02-26 21:13:00,41.5,34.8,30.22,SW,232,0.0,0.0,77,0.00,OVC,OVC,0.00,WeatherDisplay:10.37,2013-02-27 05:13:00,
2013-02-26 21:18:00,41.4,34.7,30.23,SW,232,0.0,0.0,77,0.00,OVC,OVC,0.00,WeatherDisplay:10.37,2013-02-27 05:18:00,
2013-02-26 21:23:00,41.3,34.6,30.23,SW,232,0.0,0.0,77,0.00,OVC,OVC,0.00,WeatherDisplay:10.37,2013-02-27 05:23:00,
2013-02-26 21:28:00,41.3,35.0,30.22,SW,232,0.0,0.0,78,0.00,OVC,OVC,0.00,WeatherDisplay:10.37,2013-02-27 05:28:00,
2013-02-26 21:33:00,41.2,34.9,30.23,SW,232,0.0,0.0,78,0.00,OVC,OVC,0.00,WeatherDisplay:10.37,2013-02-27 05:33:00,
2013-02-26 21:38:00,41.1,35.1,30.23,SW,232,0.0,0.0,79,0.00,OVC,OVC,0.00,WeatherDisplay:10.37,2013-02-27 05:38:00,
2013-02-26 21:43:00,41.1,35.7,30.23,SW,232,0.0,0.0,81,0.00,OVC,OVC,0.00,WeatherDisplay:10.37,2013-02-27 05:43:00,
2013-02-26 21:48:00,41.1,35.7,30.23,SW,232,0.0,0.0,81,0.00,OVC,OVC,0.00,WeatherDisplay:10.37,2013-02-27 05:48:00,
2013-02-26 21:53:00,41.0,35.6,30.23,SW,232,0.0,0.0,81,0.00,OVC,OVC,0.00,WeatherDisplay:10.37,2013-02-27 05:53:00,
2013-02-26 21:58:00,40.9,35.8,30.23,SW,232,0.0,1.0,82,0.00,OVC,OVC,0.00,WeatherDisplay:10.37,2013-02-27 05:58:00,
2013-02-26 22:03:00,40.8,35.4,30.22,SW,233,0.0,0.0,81,0.00,OVC,OVC,0.00,WeatherDisplay:10.37,2013-02-27 06:03:00,
2013-02-26 22:08:00,40.8,35.7,30.22,SW,232,0.0,1.0,82,0.00,OVC,OVC,0.00,WeatherDisplay:10.37,2013-02-27 06:08:00,
2013-02-26 22:13:00,40.9,35.2,30.22,SW,236,0.0,1.0,80,0.00,OVC,OVC,0.00,WeatherDisplay:10.37,2013-02-27 06:13:00,
2013-02-26 22:18:00,41.1,34.8,30.22,SSE,158,0.0,1.0,78,0.00,OVC,OVC,0.00,WeatherDisplay:10.37,2013-02-27 06:18:00,
2013-02-26 22:23:00,41.2,34.9,30.22,ESE,114,0.0,0.0,78,0.00,OVC,OVC,0.00,WeatherDisplay:10.37,2013-02-27 06:23:00,
2013-02-26 22:28:00,41.3,35.0,30.21,SSW,192,0.0,0.0,78,0.00,OVC,OVC,0.00,WeatherDisplay:10.37,2013-02-27 06:28:00,
2013-02-26 22:33:00,41.3,35.0,30.22,SSW,195,0.0,0.0,78,0.00,OVC,OVC,0.00,WeatherDisplay:10.37,2013-02-27 06:33:00,
2013-02-26 22:38:00,41.3,35.0,30.22,SSW,197,0.0,0.0,78,0.00,OVC,OVC,0.00,WeatherDisplay:10.37,2013-02-27 06:38:00,
2013-02-26 22:43:00,41.3,35.0,30.22,SSW,200,0.0,0.0,78,0.00,OVC,OVC,0.00,WeatherDisplay:10.37,2013-02-27 06:43:00,
2013-02-26 22:48:00,41.3,35.0,30.22,SSE,166,0.0,2.0,78,0.00,OVC,OVC,0.00,WeatherDisplay:10.37,2013-02-27 06:48:00,
2013-02-26 22:53:00,41.3,35.0,30.22,SE,141,0.0,0.0,78,0.00,OVC,OVC,0.00,WeatherDisplay:10.37,2013-02-27 06:53:00,
2013-02-26 22:58:00,41.3,35.0,30.22,SE,142,0.0,1.0,78,0.00,OVC,OVC,0.00,WeatherDisplay:10.37,2013-02-27 06:58:00,
2013-02-26 23:03:00,41.4,35.4,30.22,SE,141,0.0,0.0,79,0.00,OVC,OVC,0.00,WeatherDisplay:10.37,2013-02-27 07:03:00,
2013-02-26 23:08:00,41.4,35.4,30.22,SSE,157,0.0,0.0,79,0.00,OVC,OVC,0.00,WeatherDisplay:10.37,2013-02-27 07:08:00,
2013-02-26 23:13:00,41.4,35.1,30.21,SW,229,0.0,1.0,78,0.00,OVC,OVC,0.00,WeatherDisplay:10.37,2013-02-27 07:13:00,
2013-02-26 23:18:00,41.4,35.4,30.22,WSW,237,0.0,1.0,79,0.00,OVC,OVC,0.00,WeatherDisplay:10.37,2013-02-27 07:18:00,
2013-02-26 23:23:00,41.5,35.1,30.21,SE,132,0.0,1.0,78,0.00,OVC,OVC,0.00,WeatherDisplay:10.37,2013-02-27 07:23:00,
2013-02-26 23:28:00,41.5,35.5,30.22,West,264,0.0,1.0,79,0.00,OVC,OVC,0.00,WeatherDisplay:10.37,2013-02-27 07:28:00,
2013-02-26 23:33:00,41.5,35.5,30.22,West,277,0.0,0.0,79,0.00,OVC,OVC,0.00,WeatherDisplay:10.37,2013-02-27 07:33:00,
2013-02-26 23:38:00,41.5,35.5,30.22,West,280,0.0,1.0,79,0.00,OVC,OVC,0.00,WeatherDisplay:10.37,2013-02-27 07:38:00,
2013-02-26 23:43:00,41.5,35.8,30.21,WSW,258,0.0,1.0,80,0.00,OVC,OVC,0.00,WeatherDisplay:10.37,2013-02-27 07:43:00,
2013-02-26 23:48:00,41.4,35.7,30.21,South,169,0.0,1.0,80,0.00,OVC,OVC,0.00,WeatherDisplay:10.37,2013-02-27 07:48:00,
2013-02-26 23:53:00,41.4,36.0,30.22,ESE,116,0.0,1.0,81,0.00,OVC,OVC,0.00,WeatherDisplay:10.37,2013-02-27 07:53:00,
2013-02-26 23:58:00,41.4,36.0,30.22,SSE,154,0.0,0.0,81,0.00,OVC,OVC,0.00,WeatherDisplay:10.37,2013-02-27 07:58:00,